User: anonymous   Login
Location: Allie Creek
(37.5926°N, 89.8526°W)
Time: 23:22:21
(UTC+00:00)
Language:

Meteor 1-27 Rocket - Orbit

View from above orbital plane
View from above orbital plane
View from above satellite
View from above satellite

Ground track
Ground track

The orbit data is extracted from the following two-line orbital elements,

1 09904U 77024B   24055.33943299  .00000112  00000-0  58887-4 0  9994
2 09904  81.2619 288.8882 0053402 286.1500  73.3795 14.07076067406104
Epoch (UTC): 24 February 2024 08:08:47
Eccentricity: 0.0053402
inclination: 81.2619°
perigee height: 830 km
apogee height: 908 km
right ascension of ascending node: 288.8882°
argument of perigee: 286.1500°
revolutions per day: 14.07076067
mean anomaly at epoch: 73.3795°
orbit number at epoch: 40610

The dashed part of the orbit path shows where the satellite is in the earth's shadow,  

DLR